Probability
0 0 0 0 0 0 0 0 0 0 0 0 0 0 0 0 0 0 0 0 0 0 0 0 0 0 0 0 0 0 0 0 0 0 0 0 0 0 0 0 0 0 0 0
0 0 0 0 0 0 0 0 0 0 0 0 0 0 0 0 0 0 0 0 0 0 0 0 0 0 0 0 0 0 0 0 0 0 0 0 0 0 0 0 0 0 0 0
0 0 0 0 0 0 0 0 0 0 0 0 0 0 0 0 0 0 0 0 0 0 0 0 0 0 0 0 0 0 0 0 0 0 0 0 0 0 0 0 0 0 0 0
0 0 0 0 0 0 0 0 0 0 0 0 0 0 0 0 0 0 0 0 0 0 0 0 0 0 0 0 0 0 0 0 0 0 0 0 0 0 0 0 0 0 0 0
0 0 0 0 0 0 0 0 0 0 0 0 0 0 0 0 0 0 0 0 0 0 0 0 0 0 0 0 0 0 0 0 0 0 0 0 0 0 0 0 0 0 0 0
0 0 0 0 0 0 0 0 0 0 0 0 0 0 0 0 0 0 0 0 0 0 0 0 0 0 0 0 0 0 0 0 0 0 0 0 0 0 0 0 0 0 0 0
0 0 0 0 0 0 0 0 0 0 0 0 0 0 0 0 0 0 0 0 0 0 0 0 0 0 0 0 0 0 0 0 0 0 0 0 0 0 0 0 0 0 0 0
0 0 0 0 0 0 0 0 0 0 0 0 0 0 0 0 0 0 0 0 0 0 0 0 0 0 0 0 0 0 0 0 0 0 0 0 0 0 0 0 0 0 0 0
0 0 0 0 0 0 0 0 0 0 0 0 0 0 0 0 0 0 0 0 0 0 0 0 0 0 0 0 0 0 0 0 0 0 0 0 0 0 0 0 0 0 0 0
0 0 0 0 0 0 0 0 0 0 0 0 0 0 0 0 0 0 0 0 0 0 0 0 0 0 0 0 0 0 0 0 0 0 0 0 0 0 0 0 0 0 0 0
0 0 0 0 0 0 0 0 0 0 0 0 0 0 0 0 0 0 0 0 0 0 0 0 0 0 0 0 0 0 0 0 0 0 0 0 0 0 0 0 0 0 0 0
0 0 0 0 0 0 0 0 0 0 0 0 0 0 0 0 0 0 0 0 0 0 0 0 0 0 0 0 0 0 0 0 0 0 0 0 0 0 0 0 0 0 0 0
0 0 0 0 0 0 0 0 0 0 0 0 0 0 0 0 0 0 0 0 0 0 0 0 0 0 0 0 0 0 0 0 0 0 0 0 0 0 0 0 0 0 0 0
0 0 0 0 0 0 0 0 0 0 0 0 0 0 0 0 0 0 0 0 0 0 0 0 0 0 0 0 0 0 0 0 0 0 0 0 0 0 0 0 0 0 0 0
0 0 0 0 0 0 0 0 0 0 0 0 0 0 0 0 0 0 0 0 0 0 0 0 0 0 0 0 0 0 0 0 0 0 0 0 0 0 0 0 0 0 0 0
0 0 0 0 0 0 0 0 0 0 0 0 0 0 0 0 0 0 0 0 0 0 0 0 0 0 0 0 0 0 0 0 0 0 0 0 0 0 0 0 0 0 0 0
0 0 0 0 0 0 0 0 0 0 0 0 0 0 0 0 0 0 0 0 0 0 0 0 0 0 0 0 0 0 0 0 0 0 0 0 0 0 0 0 0 0 0 0
0 0 0 0 0 0 0 0 0 0 0 0 0 0 0 0 0 0 0 0 0 0 0 0 0 0 0 0 0 0 0 0 0 0 0 0 0 0 0 0 0 0 0 0
0 0 0 0 0 0 0 0 0 0 0 0 0 0 0 0 0 0 0 0 0 0 0 0 0 0 0 0 0 0 0 0 0 0 0 0 0 0 0 0 0 0 0 0
0 0 0 0 0 0 0 0 0 0 0 0 0 0 0 0 0 0 0 0 0 0 0 0 0 0 0 0 0 0 0 0 0 0 0 0 0 0 0 0 0 0 0 0
0 0 0 0 0 0 0 0 0 0 0 0 0 0 0 0 0 0 0 0 0 0 0 0 0 0 0 0 0 0 0 0 0 0 0 0 0 0 0 0 0 0 0 0
0 0 0 0 0 0 0 0 0 0 0 0 0 0 0 0 0 0 0 0 0 0 0 0 0 0 0 0 0 0 0 0 0 0 0 0 0 0 0 0 0 0 0 0
0 0 0 0 0 0 0 0 0 0 0 0 0 0 0 0 0 0 0 0 0 0 0 0 0 0 0 0 0 0 0 0 0 0 0 0 0 0 0 0 0 0 0 0
0 0 0 0 0 0 0 0 0 0 0 0 0 0 0 0 0 0 0 0 0 0 0 0 0 0 0 0 0 0 0 0 0 0 0 0 0 0 0 0 0 0 0 0
0 0 0 0 0 0 0 0 0 0 0 0 0 0 0 0 0 0 0 0 0 0 0 0 0 0 0 0 0 0 0 0 0 0 0 0 0 0 0 0 0 0 0 0
0 0 0 0 0 0 0 0 0 0 0 0 0 0 0 0 0 0 0 0 0 0 0 0 0 0 0 0 0 0 0 0 0 0 0 0 0 0 0 0 0 0 0 0
0 0 0 0 0 0 0 0 0 0 0 0 0 0 0 0 0 0 0 0 0 0 0 0 0 0 0 0 0 0 0 0 0 0 0 0 0 0 0 0 0 0 0 0
Height
5632 5634 5636 5637 5639 5641 5644 5646 5648 5650 5651 5653 5654 5655 5656 5657 5658 5659 5660 5661 5661 5661 5661 5661 5662 5662 5662 5662 5663 5663 5664 5664 5665 5665 5666 5667 5667 5668 5668 5669 5669 5670 5670 5670
5633 5634 5636 5638 5639 5641 5642 5644 5645 5647 5648 5648 5649 5650 5650 5651 5651 5652 5652 5652 5652 5652 5651 5651 5651 5651 5651 5651 5651 5651 5652 5652 5652 5653 5654 5654 5655 5656 5656 5657 5657 5658 5658 5659
5633 5634 5636 5638 5638 5639 5640 5641 5642 5643 5645 5644 5644 5644 5644 5644 5644 5643 5643 5643 5642 5641 5641 5640 5640 5640 5639 5639 5639 5639 5639 5639 5640 5640 5641 5642 5643 5644 5644 5645 5645 5646 5647 5647
5633 5635 5635 5638 5636 5637 5637 5638 5638 5638 5638 5638 5638 5638 5637 5636 5635 5634 5633 5632 5631 5630 5629 5628 5627 5627 5626 5626 5626 5626 5626 5626 5626 5627 5628 5629 5630 5631 5631 5632 5633 5634 5635 5635
5632 5632 5634 5635 5634 5634 5634 5634 5633 5633 5632 5632 5631 5630 5629 5627 5626 5624 5623 5621 5620 5618 5617 5616 5615 5614 5613 5612 5612 5612 5612 5612 5613 5613 5614 5615 5616 5617 5618 5619 5620 5621 5622 5623
5630 5630 5631 5633 5631 5630 5632 5631 5629 5628 5627 5625 5624 5623 5621 5618 5616 5613 5611 5609 5608 5606 5604 5602 5601 5600 5599 5599 5598 5598 5598 5598 5599 5599 5601 5602 5603 5604 5605 5606 5608 5609 5610 5611
5628 5628 5629 5629 5628 5628 5628 5628 5625 5623 5621 5619 5616 5615 5612 5609 5606 5603 5600 5597 5595 5592 5590 5588 5587 5586 5585 5584 5583 5583 5584 5584 5584 5585 5586 5588 5589 5590 5592 5593 5595 5596 5598 5598
5627 5627 5629 5626 5625 5624 5624 5621 5619 5616 5614 5611 5608 5605 5602 5598 5595 5591 5588 5585 5581 5579 5576 5574 5572 5571 5570 5569 5568 5568 5569 5569 5570 5571 5572 5573 5575 5577 5578 5580 5582 5583 5585 5586
5626 5627 5624 5622 5621 5619 5617 5615 5612 5609 5607 5603 5600 5596 5592 5588 5584 5579 5575 5571 5568 5565 5563 5560 5558 5556 5555 5554 5553 5553 5553 5554 5554 5556 5557 5559 5560 5562 5564 5566 5568 5570 5572 5573
5623 5622 5620 5618 5616 5614 5611 5608 5605 5602 5598 5594 5590 5586 5582 5577 5572 5567 5562 5558 5555 5552 5549 5546 5543 5541 5539 5538 5537 5537 5537 5538 5539 5540 5542 5544 5546 5548 5550 5552 5554 5557 5559 5561
5619 5618 5615 5613 5611 5608 5605 5601 5597 5593 5589 5584 5580 5575 5570 5565 5560 5555 5550 5545 5541 5537 5534 5531 5528 5525 5522 5521 5520 5520 5521 5521 5523 5525 5527 5529 5531 5533 5535 5538 5541 5543 5546 5548
5616 5613 5611 5608 5605 5601 5597 5593 5589 5584 5579 5574 5568 5563 5558 5552 5547 5541 5536 5530 5526 5521 5517 5514 5511 5508 5504 5502 5502 5503 5503 5504 5506 5508 5511 5513 5516 5519 5521 5524 5527 5530 5532 5535
5611 5608 5605 5602 5598 5594 5589 5585 5579 5574 5568 5562 5556 5550 5544 5538 5532 5526 5520 5514 5509 5505 5500 5496 5492 5489 5485 5483 5484 5485 5487 5488 5490 5492 5495 5498 5501 5504 5508 5511 5513 5516 5519 5522
5605 5602 5598 5594 5590 5585 5580 5575 5569 5563 5556 5550 5543 5537 5530 5523 5516 5510 5503 5497 5491 5487 5482 5477 5473 5470 5467 5466 5466 5467 5469 5472 5474 5477 5480 5483 5486 5490 5493 5496 5500 5503 5507 5509
5599 5595 5592 5587 5582 5577 5571 5565 5558 5551 5544 5537 5530 5522 5515 5508 5501 5493 5486 5479 5474 5468 5463 5459 5455 5452 5449 5448 5449 5450 5452 5454 5457 5460 5464 5467 5471 5475 5479 5482 5486 5490 5494 5497
5592 5588 5584 5579 5573 5567 5561 5554 5547 5540 5532 5524 5516 5508 5500 5492 5484 5477 5469 5462 5456 5451 5445 5440 5437 5434 5431 5431 5431 5432 5434 5437 5440 5443 5447 5452 5456 5460 5464 5468 5472 5477 5481 5484
5585 5581 5576 5570 5564 5558 5551 5543 5535 5527 5519 5510 5502 5493 5484 5476 5469 5461 5454 5446 5439 5434 5428 5423 5420 5417 5415 5413 5413 5415 5417 5419 5422 5427 5431 5436 5441 5446 5450 5454 5458 5463 5467 5471
5578 5573 5568 5562 5555 5548 5540 5532 5523 5514 5506 5497 5487 5478 5470 5461 5453 5446 5438 5431 5424 5418 5412 5407 5404 5401 5398 5397 5396 5397 5399 5402 5406 5410 5415 5421 5426 5431 5436 5440 5445 5449 5454 5458
5570 5565 5559 5552 5545 5537 5529 5520 5511 5502 5493 5483 5474 5465 5456 5447 5439 5431 5424 5417 5410 5404 5399 5393 5389 5385 5383 5382 5381 5382 5383 5386 5389 5394 5400 5405 5411 5417 5422 5427 5432 5436 5441 5446
5562 5556 5550 5542 5535 5526 5518 5508 5499 5490 5480 5470 5461 5452 5443 5434 5425 5418 5410 5403 5396 5390 5385 5380 5376 5372 5370 5369 5368 5369 5370 5371 5374 5379 5385 5391 5397 5403 5408 5413 5419 5424 5428 5433
5554 5547 5540 5533 5524 5515 5506 5496 5487 5477 5467 5457 5448 5439 5430 5421 5412 5405 5398 5392 5385 5377 5372 5367 5363 5361 5358 5357 5356 5356 5357 5359 5362 5366 5371 5377 5383 5389 5395 5400 5406 5411 5416 5421
5545 5539 5531 5523 5514 5504 5494 5484 5475 5465 5455 5445 5435 5426 5417 5409 5401 5393 5386 5378 5372 5366 5361 5356 5352 5349 5347 5346 5345 5345 5346 5348 5350 5354 5358 5364 5370 5376 5381 5387 5393 5398 5404 5409
5537 5529 5521 5513 5504 5494 5483 5472 5462 5452 5442 5432 5423 5413 5405 5397 5389 5382 5376 5368 5361 5355 5350 5346 5342 5339 5337 5336 5335 5335 5336 5337 5340 5343 5347 5352 5357 5363 5369 5375 5380 5386 5392 5397
5528 5520 5511 5502 5493 5483 5473 5462 5450 5440 5430 5420 5410 5400 5392 5385 5378 5370 5362 5356 5350 5345 5340 5336 5333 5330 5328 5327 5326 5326 5327 5328 5330 5333 5337 5341 5346 5351 5357 5363 5369 5375 5380 5385
5518 5510 5501 5492 5482 5472 5461 5451 5440 5430 5419 5409 5399 5388 5379 5372 5365 5359 5352 5346 5340 5336 5332 5328 5325 5322 5320 5319 5318 5318 5318 5319 5321 5324 5327 5331 5336 5341 5346 5352 5358 5364 5370 5375
5508 5500 5491 5481 5471 5460 5450 5440 5430 5419 5409 5400 5390 5379 5370 5361 5354 5348 5342 5337 5332 5328 5324 5321 5318 5315 5313 5312 5311 5311 5311 5312 5314 5317 5320 5323 5327 5332 5337 5342 5348 5354 5359 5365
5498 5490 5480 5470 5459 5448 5438 5427 5417 5407 5397 5388 5379 5369 5361 5352 5345 5339 5334 5329 5325 5321 5317 5314 5311 5309 5307 5306 5305 5305 5305 5306 5308 5310 5313 5316 5320 5324 5329 5334 5339 5345 5350 5356
Wind_Speed
6 5 4 3 3 4 6 7 9 10 13 15 18 20 23 25 27 29 31 33 35 37 39 41 42 43 44 46 46 47 47 48 48 48 48 48 48 48 48 48 48 47 47 47
4 3 2 3 4 6 7 9 11 13 15 18 20 22 24 26 28 30 32 35 37 39 41 42 44 45 46 47 48 48 49 49 49 49 49 49 49 48 48 48 47 47 46 46
4 4 4 5 7 9 11 13 15 17 19 22 23 25 27 29 30 32 34 36 38 40 42 43 45 46 47 49 49 50 51 51 51 51 51 51 50 50 49 49 49 48 48 47
5 6 6 8 10 11 12 14 16 19 21 23 26 28 30 32 34 35 37 38 39 41 42 44 45 46 47 49 50 51 51 51 51 51 51 51 51 50 50 49 48 48 47 46
6 7 8 9 10 12 13 14 17 19 21 23 26 28 30 33 36 38 39 41 42 44 45 46 46 47 48 48 49 50 50 50 50 50 50 50 49 49 48 48 47 46 45 45
6 7 8 9 11 12 14 15 17 20 22 25 27 29 31 34 36 39 41 43 44 45 46 47 48 48 49 49 49 49 49 49 49 49 49 48 48 47 47 46 46 45 45 44
5 6 7 9 11 13 14 15 18 20 22 25 28 30 33 35 37 40 42 43 45 46 47 48 48 48 49 49 49 49 49 49 49 49 48 48 48 47 47 46 45 45 44 43
4 6 8 10 12 14 15 18 20 22 24 26 29 31 34 36 38 40 42 44 45 46 47 47 48 48 48 49 49 50 50 49 49 48 48 48 47 47 46 46 45 45 44 43
6 8 10 12 14 15 17 19 21 24 26 28 30 32 35 38 40 42 42 43 45 46 46 47 48 48 48 48 48 48 49 49 49 48 48 47 47 46 46 45 45 44 43 42
9 11 13 15 16 18 20 22 24 26 28 30 32 34 36 38 40 41 43 44 46 47 47 48 49 49 49 49 49 49 48 48 48 47 47 46 46 46 46 45 44 44 43 42
12 14 16 18 20 22 24 26 27 29 31 33 35 37 39 40 41 42 44 46 47 48 48 49 50 51 51 50 49 49 49 48 48 47 47 46 45 44 44 44 43 43 42 41
15 18 19 21 23 25 27 29 31 33 35 37 39 41 42 43 44 46 47 47 48 49 50 50 51 52 52 52 51 49 47 47 47 46 46 45 44 44 43 43 42 42 42 41
19 21 23 25 27 29 31 33 35 38 40 41 42 44 45 46 47 49 50 50 51 51 51 52 52 52 52 51 49 48 47 45 45 45 45 44 44 43 43 43 42 42 41 40
22 24 26 28 30 33 35 37 39 41 42 43 45 46 47 48 49 50 51 52 52 52 53 52 51 50 50 48 48 48 47 47 46 45 45 44 44 43 43 42 42 42 40 39
25 27 29 31 33 35 38 40 42 44 44 45 46 48 49 50 51 52 52 52 53 53 53 52 51 49 48 47 46 46 46 46 46 45 44 44 43 43 43 42 42 41 40 39
28 30 32 34 36 38 41 43 45 46 46 48 49 50 51 52 52 51 52 52 52 52 52 51 49 48 48 47 46 46 45 46 46 45 44 44 43 43 42 42 42 41 40 39
31 32 35 37 39 42 44 46 47 48 49 51 51 51 51 51 51 51 51 51 50 50 50 49 47 46 46 46 46 45 45 45 45 45 45 44 43 42 42 42 41 40 40 39
33 35 37 40 42 45 47 49 49 50 51 52 52 52 51 51 50 50 49 48 49 48 48 47 45 43 42 43 43 44 44 44 44 44 44 44 43 43 42 41 40 39 39 39
36 38 40 43 45 48 50 51 51 52 53 53 53 52 51 50 49 48 47 46 46 45 43 43 42 41 40 39 38 38 39 41 42 43 43 43 43 43 42 42 41 40 39 39
38 41 43 46 49 51 52 53 53 54 54 54 53 52 51 50 49 47 46 45 45 44 42 40 38 36 36 35 35 35 36 37 38 40 41 42 42 43 42 41 40 41 40 39
41 43 46 48 51 53 54 55 55 55 55 55 54 52 51 49 48 47 46 44 43 42 40 37 35 34 33 32 32 33 33 33 35 37 39 40 40 41 42 41 41 40 40 39
43 46 48 51 53 55 57 57 57 57 56 55 55 53 51 49 47 46 45 44 41 39 37 35 33 32 31 30 30 30 30 31 32 33 36 38 39 39 40 40 40 39 39 39
45 48 51 53 55 57 58 59 58 58 57 56 55 53 51 48 47 45 43 42 40 37 34 32 31 30 29 28 27 27 27 29 30 31 33 35 37 38 38 38 38 38 37 37
48 50 53 56 58 59 59 59 59 58 58 57 56 54 51 48 46 45 43 40 37 34 32 30 29 27 26 25 25 24 25 26 27 29 30 32 34 36 36 37 37 37 36 36
50 53 56 58 61 61 61 59 59 59 58 57 55 53 51 49 46 43 40 37 34 32 30 28 27 25 23 23 23 23 22 23 24 25 27 29 31 33 34 36 37 37 36 35
52 55 58 61 63 63 62 60 60 59 58 56 54 52 49 47 44 41 37 34 31 29 28 26 24 22 21 21 20 20 20 21 21 22 23 25 28 30 32 33 34 35 35 35
55 57 60 63 64 63 62 62 61 60 59 57 53 50 47 44 41 37 34 31 30 28 26 24 23 21 20 19 18 18 18 18 19 20 20 22 24 27 29 30 31 32 32 32
Wind_Direction
139 145 154 177 209 231 238 242 247 251 253 253 253 253 254 254 254 254 254 254 253 253 254 255 257 258 258 259 259 260 261 261 262 262 263 264 264 265 265 266 268 269 271 272
163 176 195 230 250 259 262 261 261 261 261 262 262 261 260 259 259 258 258 258 258 258 258 258 258 259 260 260 260 260 261 262 262 262 263 264 264 264 266 267 268 269 271 273
202 219 238 257 265 267 268 268 267 266 265 265 266 266 267 266 266 265 263 262 262 261 261 261 261 261 261 261 261 261 261 262 262 263 263 264 264 265 266 267 268 270 271 273
238 251 258 263 269 272 273 273 272 271 269 268 269 269 270 270 269 268 267 266 266 266 266 266 265 264 264 263 263 263 263 263 263 263 263 264 264 265 265 267 268 270 271 272
248 255 261 268 271 273 275 276 276 275 274 274 274 274 274 273 272 271 270 270 270 270 269 269 268 268 267 266 265 265 264 264 264 264 264 264 265 265 265 266 267 268 269 271
247 256 260 267 273 278 279 278 279 280 280 280 279 279 279 278 277 276 275 274 273 273 272 271 271 270 268 268 267 266 265 264 264 264 263 263 264 264 265 265 265 266 267 269
256 266 271 277 280 283 283 284 282 284 285 284 283 282 282 281 280 279 278 277 276 276 275 274 272 271 270 269 268 267 266 265 264 264 263 263 263 263 263 264 264 265 266 268
279 283 284 289 289 289 290 289 289 288 288 288 287 286 285 284 283 282 281 280 279 278 277 276 274 273 272 270 269 267 266 265 264 263 263 262 262 262 262 262 263 264 265 266
294 292 292 294 294 294 294 294 294 293 292 291 291 290 289 287 286 285 284 282 281 280 279 278 277 275 273 271 270 268 266 265 264 262 261 261 260 260 260 261 261 261 262 264
298 297 298 298 298 298 298 298 298 298 297 295 293 292 292 291 290 288 285 283 282 281 280 279 278 277 275 272 270 268 266 264 262 261 260 260 259 258 258 259 259 259 260 261
303 302 303 303 302 302 301 301 301 301 300 298 296 294 293 292 291 289 287 285 283 281 280 280 278 277 275 273 270 269 266 263 261 260 258 258 258 256 256 256 257 257 258 259
307 306 306 306 305 305 305 305 304 304 303 301 299 297 295 294 292 290 289 286 284 283 282 281 279 278 276 274 271 268 266 263 260 258 257 256 255 254 253 253 254 255 256 257
308 307 307 307 307 307 307 306 306 306 305 303 301 300 298 296 294 293 291 289 286 285 284 282 280 279 278 275 271 268 264 262 260 256 254 253 253 252 251 251 252 253 254 254
309 309 309 310 309 309 309 308 308 308 307 305 304 302 300 298 297 296 294 291 289 287 286 284 282 280 278 274 271 267 264 261 258 256 252 251 251 250 249 249 249 251 252 252
311 311 311 311 311 311 311 311 311 310 309 308 306 304 302 301 300 298 296 294 292 290 287 286 284 281 277 273 270 267 263 260 257 254 251 250 249 249 249 248 247 247 249 250
312 312 313 313 314 314 314 314 314 313 312 311 309 307 305 304 303 300 298 297 294 292 290 288 285 281 278 274 270 266 262 259 255 252 250 248 248 248 247 247 246 246 246 247
313 314 315 316 317 317 317 317 316 315 314 314 312 311 309 308 305 303 301 298 296 294 292 290 287 283 278 274 271 267 262 258 254 252 249 247 246 246 246 246 246 245 244 245
315 316 317 318 318 319 319 319 318 318 317 316 316 315 313 311 309 306 304 301 298 297 295 292 289 285 281 276 271 267 263 258 254 250 247 245 244 244 244 244 243 243 242 243
317 318 319 319 320 321 321 321 321 320 319 319 318 317 315 313 311 310 307 305 302 300 298 295 291 287 283 278 273 267 263 258 254 249 245 244 243 243 243 242 242 242 242 241
318 319 320 321 322 323 323 322 322 322 321 320 320 319 317 315 313 311 310 308 306 304 302 298 293 289 284 279 274 268 264 259 252 246 243 242 242 242 242 241 240 241 241 242
320 321 322 323 323 324 324 324 324 323 322 322 322 321 319 316 314 313 312 311 309 306 304 299 295 291 287 281 275 270 265 259 252 246 241 240 240 240 240 240 239 240 240 240
321 322 323 324 325 325 325 325 325 324 324 324 323 322 319 317 316 315 315 313 311 308 305 301 296 292 288 282 277 272 266 259 253 247 242 240 238 238 239 238 238 238 239 239
321 323 324 325 326 326 326 326 326 325 325 325 324 322 320 318 317 316 315 314 311 309 307 303 298 294 289 284 279 273 267 260 253 248 243 240 238 237 237 237 236 236 237 238
322 324 325 326 327 327 327 327 327 327 327 326 325 323 321 320 318 317 316 314 312 309 307 304 300 297 291 285 280 274 267 261 254 248 244 240 237 236 235 234 234 233 234 236
323 324 326 327 327 328 328 328 328 328 327 327 325 323 322 321 319 318 316 315 314 311 308 305 302 299 294 287 280 273 267 260 253 247 243 238 236 234 233 232 230 231 232 234
323 325 326 327 328 328 328 329 329 328 328 327 326 324 322 321 320 318 317 316 315 313 310 307 303 300 295 289 282 273 265 258 251 245 241 237 234 232 231 230 229 229 231 232
324 326 327 328 329 329 329 329 329 329 328 327 326 325 323 321 320 319 317 316 314 312 310 307 303 300 294 288 282 272 264 257 248 241 238 235 233 231 230 228 227 227 228 229